Theta_e
319 319 319 320 322 322 322 322 323 326 331 333 335 337 336 330 323 323 323 316 316 321 319 313 305 301 300 298 298 298 298 297 296 298 299 299 297 299 299 297 296 295 294
313 316 317 319 320 321 321 322 323 326 331 333 332 331 326 315 318 318 314 313 310 312 312 304 301 299 297 297 296 297 297 296 295 296 298 301 299 298 298 296 295 294 293
312 312 313 317 319 320 321 321 323 328 331 330 329 322 313 311 310 309 307 308 310 306 304 301 299 298 296 295 295 295 296 296 295 294 296 299 300 296 295 296 294 294 292
312 312 312 312 316 319 321 321 323 327 328 325 320 318 320 313 306 305 304 303 301 300 299 299 296 295 295 295 293 293 294 294 294 294 292 292 293 295 295 294 294 292 291
312 312 312 312 312 316 321 321 323 325 323 322 322 323 319 308 303 302 300 298 298 298 297 296 294 294 294 293 293 293 292 292 292 292 292 291 291 292 293 294 294 292 292
312 312 312 312 312 314 321 322 322 321 320 321 321 322 312 304 299 297 296 296 296 294 293 293 293 293 292 292 292 291 291 291 290 290 290 290 291 291 291 292 292 292 291
310 312 312 313 314 315 320 321 320 319 319 320 320 315 309 304 301 298 295 294 293 292 292 292 292 292 291 291 291 291 291 290 290 289 289 289 289 289 289 290 291 291 290
311 311 311 313 314 317 319 319 319 317 317 318 316 311 302 300 297 297 296 293 294 293 292 291 291 290 290 290 290 290 289 289 289 289 288 288 289 289 289 289 289 290 290
311 312 312 315 315 318 320 319 317 315 314 313 310 304 300 298 295 295 294 293 291 291 291 291 290 290 290 289 289 289 288 288 288 289 289 288 288 288 288 288 288 288 289
315 315 313 313 316 318 319 318 315 313 311 308 305 301 296 297 295 294 292 292 291 291 290 290 290 289 289 288 288 288 288 288 288 288 288 288 288 288 287 287 287 287 287
316 316 316 312 315 318 317 315 312 308 306 304 301 298 295 294 294 293 293 292 291 291 290 290 289 289 288 287 287 287 287 288 288 288 288 287 287 287 286 286 286 286 286
314 315 315 315 316 315 313 311 308 306 303 299 296 294 294 293 293 292 292 291 290 290 289 289 288 288 287 287 287 287 288 288 288 288 287 287 286 286 286 286 286 286 286
314 314 315 314 314 311 309 307 304 300 298 296 293 292 292 293 292 291 290 290 290 289 288 288 288 287 286 286 286 287 288 288 288 288 287 287 286 286 286 285 286 286 286
312 312 312 312 311 308 306 302 297 294 294 293 293 292 293 292 291 290 290 289 289 288 288 287 286 286 285 285 286 287 288 288 288 287 287 286 285 285 285 286 286 286 286
311 310 310 308 306 301 298 294 292 292 292 292 293 292 291 290 290 289 289 288 288 287 287 286 286 285 285 285 287 288 288 288 287 287 286 285 285 285 285 285 285 285 285
307 306 304 302 299 296 293 292 292 292 292 292 291 290 290 289 289 289 288 288 287 287 286 286 285 285 284 284 287 287 287 287 287 286 286 285 285 285 285 285 285 285 286
305 303 301 299 296 294 293 292 292 292 292 292 290 290 289 289 288 288 288 287 287 286 286 285 285 285 284 284 286 286 286 286 286 285 285 285 285 285 284 284 285 285 286
304 301 299 297 295 294 293 292 292 292 292 291 290 289 289 288 288 288 287 286 286 286 286 285 284 284 284 283 285 285 286 286 285 285 285 285 285 284 284 285 285 286 285
302 300 298 296 295 294 292 293 292 292 291 290 289 288 288 288 288 287 286 286 286 286 285 284 284 284 284 283 284 285 285 285 285 285 285 285 284 284 284 285 286 284 284
302 299 297 295 294 293 293 292 292 292 290 289 288 288 288 288 286 286 286 285 285 285 284 284 284 283 283 283 283 284 285 285 285 285 285 284 284 284 285 285 284 284 283
298 296 295 295 293 293 293 292 292 290 289 288 288 287 287 287 286 286 285 285 285 284 284 284 284 283 283 283 283 283 284 285 285 285 284 284 284 284 284 283 283 282 283
297 296 294 292 292 293 292 292 291 288 287 287 286 286 286 286 286 286 285 284 284 285 284 284 284 284 283 283 282 283 284 284 284 284 284 284 284 283 282 282 281 282 282
298 296 294 293 293 293 293 289 286 286 286 286 286 285 285 285 285 285 285 285 284 284 284 284 284 284 283 282 282 283 284 284 284 284 283 283 283 281 280 280 281 281 281
296 294 293 293 292 290 288 287 286 286 286 286 285 285 285 285 285 284 284 284 284 284 284 284 283 283 283 282 282 283 283 283 284 283 283 282 281 280 280 280 280 280 280
294 294 294 293 290 287 286 286 286 286 286 285 285 286 285 285 284 283 284 284 283 283 283 283 282 282 282 282 282 283 283 283 283 282 281 280 280 280 280 280 280 280 280
292 291 290 289 287 286 285 286 286 287 286 286 286 285 285 284 284 284 283 282 281 280 280 281 281 281 281 282 282 282 283 282 281 280 280 279 279 279 279 279 279 279 279
Wind_Speed
18 22 21 18 17 18 19 19 17 16 18 20 22 22 22 18 16 19 21 17 18 22 20 16 13 10 6 5 3 3 6 8 11 6 5 2 1 4 6 5 5 3 6
23 22 26 25 22 20 20 20 20 20 21 20 20 20 18 13 20 21 18 20 19 21 19 16 14 11 8 6 6 6 5 6 10 6 3 3 3 1 5 9 5 7 6
23 23 23 28 25 23 21 22 22 21 22 21 21 19 16 19 20 22 19 19 20 20 18 16 13 12 9 7 7 8 6 4 5 8 4 2 2 9 4 4 8 6 11
21 22 22 24 27 26 21 19 20 22 22 24 23 25 21 20 17 24 21 22 21 20 18 16 9 10 9 8 8 7 6 4 4 1 4 2 3 3 5 4 10 9 16
17 18 19 25 25 24 22 19 19 21 22 25 22 23 20 19 27 28 25 25 22 18 16 14 11 10 9 9 8 7 5 4 2 2 2 2 4 4 5 9 9 20 19
14 16 18 20 22 22 20 22 23 22 23 24 23 23 26 29 32 31 30 26 22 18 13 13 11 10 9 8 7 6 4 3 1 1 2 3 3 6 7 8 14 19 22
12 12 14 13 17 21 22 22 25 24 24 24 26 25 26 30 36 32 34 27 19 16 13 12 11 9 8 7 6 4 3 1 1 2 3 4 6 8 11 15 17 14 24
15 13 15 13 18 21 25 25 27 25 26 26 26 25 27 30 31 33 33 26 19 16 14 12 10 9 7 6 5 3 1 1 2 3 4 6 8 9 12 15 18 14 14
14 14 15 13 19 21 26 28 27 26 26 27 28 28 28 33 34 34 31 25 19 17 14 12 10 8 7 5 3 1 1 1 3 5 6 7 9 11 13 15 17 19 14
17 18 15 14 16 19 24 25 25 27 27 29 29 29 29 35 34 34 25 19 18 16 14 11 9 7 5 3 1 0 1 3 5 6 8 9 10 13 14 16 18 19 23
26 24 17 17 16 19 23 25 27 28 28 28 29 31 30 36 34 27 21 18 17 15 12 10 8 6 4 2 1 2 3 5 6 7 9 11 12 14 16 17 19 21 23
21 21 17 14 21 21 25 27 27 28 26 29 32 33 37 31 28 23 21 18 16 13 11 9 7 5 3 1 2 3 5 7 8 9 11 12 13 16 17 18 20 21 24
1 11 14 15 18 22 25 28 28 28 28 33 35 37 30 26 24 23 20 17 15 13 10 7 6 4 2 1 3 5 7 9 10 11 12 14 16 17 18 20 21 23 25
5 11 13 15 19 24 26 28 28 29 31 33 34 31 26 24 23 21 19 16 14 12 9 6 4 2 1 2 4 7 9 11 12 13 14 16 17 18 20 22 24 25 26
9 11 14 15 18 24 26 27 29 29 32 32 31 28 25 23 22 20 17 15 12 10 8 5 3 2 2 3 7 9 11 13 14 15 16 17 18 20 21 22 24 27 27
10 12 15 18 17 24 26 29 29 29 30 30 28 26 24 22 20 18 16 14 11 9 6 3 2 2 3 7 7 10 12 14 15 17 18 18 19 19 21 23 25 26 28
12 13 15 15 19 24 29 28 29 30 28 28 26 24 22 21 18 16 14 12 9 7 4 3 2 4 5 8 9 11 13 15 16 18 19 20 19 21 22 23 27 26 27
12 13 12 16 22 26 27 30 28 27 27 26 24 22 20 19 17 15 12 11 8 5 3 2 3 5 6 9 11 13 14 15 16 18 19 20 21 22 24 28 26 26 29
12 11 18 22 25 26 27 29 26 26 25 24 22 20 19 18 16 13 12 8 6 3 2 2 4 6 7 10 12 13 15 15 17 18 20 19 23 22 27 28 28 30 30
16 19 23 25 26 26 27 28 25 24 23 21 20 19 17 16 14 13 9 7 4 2 2 3 5 7 8 10 12 13 14 16 19 20 21 21 21 26 26 29 29 29 28
20 21 22 23 25 25 26 25 23 21 21 21 20 17 15 17 15 11 8 5 3 2 3 5 7 6 8 10 12 13 14 17 21 22 23 22 24 28 30 29 28 25 29
17 19 21 22 22 24 26 24 22 22 22 22 21 20 17 14 10 9 6 4 3 4 5 7 9 8 10 11 12 14 15 18 22 23 24 26 28 30 29 27 22 25 26
18 21 23 23 21 20 22 24 22 27 28 26 21 17 13 11 8 6 5 2 3 4 6 9 11 13 13 14 14 16 19 21 22 21 26 29 28 27 23 20 23 21 18
17 21 24 23 22 18 22 28 29 30 28 24 17 14 11 9 6 5 3 2 3 5 7 9 12 14 15 15 16 20 22 21 21 24 26 26 23 21 21 20 18 18 19
18 21 22 22 21 23 27 30 31 29 24 18 14 12 9 7 5 3 1 2 3 4 8 10 12 15 16 16 20 22 23 24 25 27 23 20 19 20 19 19 19 20 21
20 21 21 23 22 25 26 27 27 24 19 16 12 9 7 5 3 2 2 4 3 5 7 8 10 14 15 18 19 20 22 24 23 21 17 17 18 19 20 21 22 22 23
Wind_Direction
246 248 248 245 237 233 229 225 215 208 195 194 192 194 188 179 168 173 174 169 171 173 173 166 158 143 128 124 119 90 53 24 6 348 336 275 235 236 231 260 290 296 310
246 244 240 239 235 232 227 221 212 200 195 192 189 188 177 163 170 168 158 164 158 162 163 157 153 139 129 113 91 76 60 38 25 9 309 321 208 250 215 285 270 299 315
243 240 235 232 230 227 222 215 208 198 191 185 174 159 149 151 144 151 147 152 160 159 155 155 145 140 133 116 93 73 67 49 38 36 360 305 315 333 261 257 297 292 312
241 243 242 238 226 225 221 213 205 193 184 178 175 175 173 157 155 150 151 150 153 151 149 143 138 135 117 113 92 80 72 53 36 31 36 13 311 322 308 267 296 290 305
245 243 238 238 236 223 212 199 195 188 183 181 180 174 161 147 147 148 145 145 144 147 147 143 147 119 115 105 100 88 78 64 49 16 351 312 296 269 276 299 306 303 309
247 247 245 241 235 224 206 185 182 183 181 176 171 170 159 147 142 145 147 150 147 146 141 137 129 118 113 107 96 91 86 78 74 8 301 297 302 301 292 297 300 302 309
259 246 253 234 225 214 201 184 176 177 177 170 164 165 164 159 153 151 151 153 147 147 142 135 128 121 115 109 100 100 98 77 297 275 293 275 277 290 289 292 295 298 302
265 256 257 246 227 209 198 184 175 171 170 163 160 158 155 152 149 153 155 150 150 144 145 136 128 120 119 105 99 94 143 287 274 280 291 287 287 289 291 292 301 303 297
261 265 260 243 225 205 193 181 173 166 165 158 153 151 151 152 150 152 154 149 146 140 138 134 128 126 112 102 106 163 236 267 291 298 297 296 296 294 293 292 292 296 303
277 270 261 238 210 203 187 175 168 160 158 152 150 148 146 153 150 149 147 140 140 138 136 133 134 124 117 113 133 256 300 308 300 301 301 303 302 299 296 293 291 289 289
275 257 251 224 201 182 171 163 157 152 153 150 144 141 142 145 143 140 139 141 136 134 134 136 134 132 123 116 39 338 307 301 299 303 305 303 304 301 300 297 294 291 290
273 236 214 188 157 162 159 154 151 149 150 145 138 133 138 136 136 138 137 136 132 132 133 134 131 125 116 64 348 318 299 297 301 308 306 306 307 304 303 300 296 294 293
10 146 150 161 142 152 151 146 144 143 144 139 131 129 130 137 136 134 133 133 132 132 130 128 127 118 79 359 325 305 300 301 304 304 305 306 306 303 303 300 297 296 293
136 134 145 149 134 145 144 138 134 138 137 131 126 128 135 136 134 132 131 132 133 129 127 125 116 100 24 329 315 308 307 305 302 302 300 302 300 300 302 300 300 300 296
133 136 142 138 125 132 133 130 127 131 130 126 127 130 131 132 130 129 130 130 127 125 127 126 113 42 353 321 321 314 308 304 301 300 300 299 297 296 297 299 299 302 301
124 137 134 125 128 133 129 126 128 128 128 125 127 128 130 130 129 129 130 128 125 126 127 118 61 358 339 322 325 317 309 302 301 303 304 303 303 302 301 300 300 298 293
139 136 129 122 134 132 130 130 129 129 125 127 127 128 131 129 130 130 130 129 129 129 114 74 10 339 329 331 324 316 310 303 303 304 306 308 306 305 304 303 302 302 300
123 123 119 120 124 126 126 126 127 129 129 127 127 130 132 131 131 132 132 126 123 112 92 23 347 333 321 327 324 319 313 303 302 306 307 305 306 308 309 310 307 306 303
131 126 124 126 128 129 131 129 131 129 128 128 129 134 136 135 136 133 128 122 116 102 53 348 334 326 318 319 329 324 314 307 307 308 307 305 306 309 314 313 310 308 306
130 133 135 135 133 137 135 127 130 128 125 131 134 137 138 136 134 130 123 118 107 80 1 329 314 312 319 318 322 327 317 313 314 314 312 310 309 314 313 314 313 308 307
134 133 133 131 133 136 133 125 126 126 132 134 134 134 135 135 129 121 119 109 86 20 337 326 318 311 313 320 324 324 322 318 316 314 313 312 315 314 315 312 308 303 305
128 130 123 127 134 136 131 129 129 135 136 137 137 136 134 127 122 121 111 94 42 353 333 327 325 320 319 316 320 327 323 320 316 313 312 313 313 314 312 310 307 308 309
141 141 136 133 138 141 140 130 136 141 143 141 133 128 123 121 119 115 100 69 13 344 336 329 321 322 325 326 326 326 326 320 314 310 311 312 313 313 314 312 311 312 310
139 138 134 133 132 129 130 134 143 149 146 136 129 127 125 123 111 95 84 39 360 342 324 321 322 322 323 325 328 327 322 318 317 318 315 313 312 312 311 315 316 315 311
134 137 134 132 129 130 134 145 150 152 138 130 129 128 124 115 108 95 65 5 331 314 318 322 320 320 318 322 320 319 317 320 320 318 313 313 316 316 317 318 316 315 316
131 126 127 127 128 130 135 145 153 151 135 130 130 126 120 114 95 54 351 320 298 313 317 315 314 315 311 316 319 318 318 320 318 316 312 312 314 315 318 317 315 315 313